Back to catalog

BADR 7

AliveCommunicationsGEO
NORAD 41029·PAYLOAD·🇦🇪 UAE🇸🇦 Saudi Arabia

Launched Nov 10, 2015 from Guiana Space Centre

Loading…

TLE

FreshSource: Space-Track

Epoch: Sep 14, 2026, 13:55 UTC

1 41029U 15065B   26257.58030104  .00000137  00000-0  00000-0 0  9997
2 41029   0.0349 225.9572 0006304 353.2609   9.2311  1.00271433 39668

Track BADR 7 in real time with AllMySat

Download on the App Store